This is the latest recevied weather packets stored in our database for station/object KC1ELF. If no packets are shown the sender has not sent any weather packets the latest 10 day(s).
| Time | Temp. | Humidity | Pressure | Rain* | Wind** | Luminosity | Snow |
|---|---|---|---|---|---|---|---|
| 1777989095 | 19.44° C | 62% | 1008.9 hPa | 0 mm | - | - | - |
| 1777988495 | 18.33° C | 64% | 1008.9 hPa | 0 mm | - | - | - |
| 1777987896 | 17.22° C | 66% | 1008.9 hPa | 0 mm | - | - | - |
| 1777987296 | 17.22° C | 64% | 1009.1 hPa | 0 mm | - | - | - |
| 1777986696 | 17.78° C | 65% | 1009.1 hPa | 0 mm | - | - | - |
| 1777986096 | 16.67° C | 67% | 1008.9 hPa | 0 mm | - | - | - |
| 1777985496 | 16.11° C | 68% | 1008.9 hPa | 0 mm | - | - | - |
| 1777984896 | 16.11° C | 68% | 1009.1 hPa | 0 mm | - | - | - |
| 1777984295 | 15.56° C | 68% | 1009.1 hPa | 0 mm | - | - | - |
| 1777983695 | 15.56° C | 69% | 1009 hPa | 0 mm | - | - | - |
| 1777983095 | 15.56° C | 69% | 1009.1 hPa | 0 mm | - | - | - |
| 1777982496 | 15.56° C | 69% | 1009 hPa | 0 mm | - | - | - |
| 1777981896 | 15° C | 71% | 1008.8 hPa | 0 mm | - | - | - |
| 1777981295 | 14.44° C | 72% | 1008.9 hPa | 0 mm | - | - | - |
| 1777980695 | 13.89° C | 73% | 1008.9 hPa | 0 mm | - | - | - |
| 1777980096 | 13.33° C | 74% | 1008.8 hPa | 0 mm | - | - | - |
| 1777979495 | 12.78° C | 75% | 1008.8 hPa | 0 mm | - | - | - |
| 1777978896 | 12.22° C | 75% | 1008.7 hPa | 0 mm | - | - | - |
| 1777978296 | 12.22° C | 76% | 1008.7 hPa | 0 mm | - | - | - |
| 1777977696 | 11.67° C | 76% | 1008.8 hPa | 0 mm | - | - | - |
| 1777977096 | 11.67° C | 76% | 1009 hPa | 0 mm | - | - | - |
| 1777976495 | 11.11° C | 76% | 1008.8 hPa | 0 mm | - | - | - |
| 1777975897 | 11.11° C | 75% | 1008.8 hPa | 0 mm | - | - | - |
| 1777975295 | 11.11° C | 74% | 1008.8 hPa | 0 mm | - | - | - |
| 1777974695 | 11.11° C | 74% | 1008.8 hPa | 0 mm | - | - | - |
* Rain latest hour (hover to see other rain measurements)
** Current wind speed in m/s (hover to see current wind gust speed)